RYR8898 LPPR-EKCH

Flight info

Callsign RYR8898
Flight time 2h 49m
Altitude 35000
Route TURON P600 ASDEB DCT LOTEE DCT AZFIC UN741 ERIGA DCT GODIX DCT PODEM UN873 BAZOS DCT BELDI DCT VEKIN DCT ADUTO DCT VICOT DCT DOSUR P729 TUDLO
Aircraft B738/M-SDE2E3FGHIRWXY/LB1

Departure

Time 2026-05-04 14:44
Airport Francisco de Sá Carneiro Airport (LPPR)

Arrival

Time 2026-05-04 17:34
Airport Copenhagen Kastrup Airport (EKCH)
Time Latitude Longitude Altitude Speed Heading
2026-05-04 14:13 41.23737 -8.67554 235 ft 0 kts 258°
2026-05-04 14:35 41.23737 -8.67553 235 ft 1 kts 258°
2026-05-04 14:35 41.23742 -8.67524 236 ft 4 kts 251°
2026-05-04 14:35 41.23753 -8.67491 241 ft 4 kts 236°
2026-05-04 14:36 41.23771 -8.67467 240 ft 4 kts 201°
2026-05-04 14:36 41.23786 -8.67464 238 ft 1 kts 171°
2026-05-04 14:36 41.23788 -8.67464 238 ft 0 kts 171°
2026-05-04 14:39 41.23783 -8.67463 236 ft 2 kts 171°
2026-05-04 14:40 41.23706 -8.67446 236 ft 8 kts 169°
2026-05-04 14:40 41.23652 -8.67432 236 ft 8 kts 168°
2026-05-04 14:40 41.23594 -8.67416 240 ft 9 kts 168°
2026-05-04 14:40 41.23520 -8.67396 236 ft 12 kts 169°
2026-05-04 14:41 41.23431 -8.67373 236 ft 14 kts 168°
2026-05-04 14:41 41.23342 -8.67382 240 ft 14 kts 242°
2026-05-04 14:41 41.23318 -8.67521 237 ft 5 kts 258°
2026-05-04 14:42 41.23296 -8.67660 237 ft 11 kts 258°
2026-05-04 14:42 41.23332 -8.67737 238 ft 11 kts 346°
2026-05-04 14:42 41.23339 -8.67739 238 ft 0 kts 346°
2026-05-04 14:43 41.23340 -8.67740 238 ft 2 kts 346°
2026-05-04 14:43 41.23506 -8.67785 232 ft 59 kts 348°
2026-05-04 14:44 41.24150 -8.67954 216 ft 127 kts 349°
2026-05-04 14:44 41.25207 -8.68217 271 ft 174 kts 347°
2026-05-04 14:44 41.26381 -8.68500 1227 ft 164 kts 345°
2026-05-04 14:44 41.27474 -8.68791 2215 ft 161 kts 345°
2026-05-04 14:45 41.28589 -8.69086 2950 ft 165 kts 345°
2026-05-04 14:45 41.29725 -8.69388 3683 ft 172 kts 345°
2026-05-04 14:45 41.31000 -8.69729 3990 ft 200 kts 345°
2026-05-04 14:45 41.32451 -8.70116 4183 ft 224 kts 346°
2026-05-04 14:46 41.34022 -8.70533 4718 ft 234 kts 346°
2026-05-04 14:46 41.35668 -8.70750 5307 ft 249 kts 360°
2026-05-04 14:46 41.37447 -8.70474 5957 ft 261 kts
2026-05-04 14:46 41.39263 -8.70066 6720 ft 268 kts
2026-05-04 14:47 41.41118 -8.69638 7468 ft 273 kts
2026-05-04 14:47 41.43009 -8.69211 8275 ft 277 kts
2026-05-04 14:47 41.44928 -8.68791 9074 ft 282 kts
2026-05-04 14:47 41.46878 -8.68376 9840 ft 286 kts
2026-05-04 14:48 41.48863 -8.67963 10493 ft 295 kts
2026-05-04 14:48 41.50976 -8.67534 10694 ft 319 kts
2026-05-04 14:48 41.53253 -8.67076 10888 ft 341 kts
2026-05-04 14:48 41.55639 -8.66597 11381 ft 353 kts
2026-05-04 14:49 41.58084 -8.66104 12101 ft 356 kts
2026-05-04 14:49 41.60537 -8.65608 12858 ft 359 kts
2026-05-04 14:49 41.63019 -8.65110 13566 ft 363 kts
2026-05-04 14:49 41.65526 -8.64607 14224 ft 367 kts
2026-05-04 14:50 41.68072 -8.64097 14817 ft 371 kts
2026-05-04 14:50 41.70597 -8.63592 15424 ft 374 kts
2026-05-04 14:50 41.73180 -8.63074 16035 ft 377 kts
2026-05-04 14:50 41.75794 -8.62551 16642 ft 382 kts
2026-05-04 14:51 41.78427 -8.62023 17251 ft 385 kts
2026-05-04 14:51 41.81099 -8.61487 17872 ft 389 kts
2026-05-04 14:51 41.83786 -8.60947 18431 ft 393 kts
2026-05-04 14:51 41.86503 -8.60400 18919 ft 396 kts
2026-05-04 14:52 41.89238 -8.59850 19451 ft 399 kts
2026-05-04 14:52 41.91994 -8.59295 19973 ft 402 kts
2026-05-04 14:52 41.94776 -8.58733 20488 ft 406 kts
2026-05-04 14:52 41.97576 -8.58168 21016 ft 409 kts
2026-05-04 14:53 42.00407 -8.57596 21534 ft 412 kts
2026-05-04 14:53 42.03249 -8.57021 22052 ft 415 kts
2026-05-04 14:53 42.06111 -8.56443 22517 ft 418 kts
2026-05-04 14:53 42.09012 -8.55891 22971 ft 421 kts
2026-05-04 14:54 42.11925 -8.55421 23467 ft 423 kts
2026-05-04 14:54 42.14859 -8.54980 23874 ft 426 kts
2026-05-04 14:54 42.17814 -8.54539 24231 ft 429 kts
2026-05-04 14:54 42.20790 -8.54087 24590 ft 432 kts
2026-05-04 14:55 42.23793 -8.53622 24963 ft 434 kts
2026-05-04 14:55 42.26790 -8.53150 25351 ft 436 kts
2026-05-04 14:55 42.29817 -8.52671 25692 ft 439 kts
2026-05-04 14:55 42.32911 -8.52180 26001 ft 443 kts
2026-05-04 14:56 42.35988 -8.51691 26350 ft 446 kts
2026-05-04 14:56 42.39038 -8.51204 26701 ft 448 kts
2026-05-04 14:56 42.42181 -8.50704 27043 ft 451 kts
2026-05-04 14:56 42.45268 -8.50212 27344 ft 454 kts
2026-05-04 14:57 42.48447 -8.49578 27631 ft 461 kts
2026-05-04 14:57 42.51488 -8.48205 27909 ft 471 kts 20°
2026-05-04 14:57 42.54380 -8.46038 28225 ft 479 kts 31°
2026-05-04 14:57 42.56995 -8.43196 28521 ft 485 kts 38°
2026-05-04 14:58 42.59538 -8.40162 28782 ft 488 kts 39°
2026-05-04 14:58 42.62066 -8.37075 29037 ft 491 kts 39°
2026-05-04 14:58 42.64612 -8.33959 29311 ft 494 kts 39°
2026-05-04 14:58 42.67182 -8.30834 29589 ft 496 kts 39°
2026-05-04 14:59 42.69763 -8.27720 29867 ft 498 kts 39°
2026-05-04 14:59 42.72357 -8.24611 30213 ft 497 kts 38°
2026-05-04 14:59 42.77547 -8.18420 30956 ft 493 kts 38°
2026-05-04 15:00 42.80120 -8.15352 31324 ft 491 kts 38°
2026-05-04 15:00 42.82687 -8.12289 31727 ft 488 kts 38°
2026-05-04 15:00 42.85201 -8.09281 32490 ft 477 kts 38°
2026-05-04 15:01 42.90195 -8.03301 32878 ft 482 kts 38°
2026-05-04 15:01 42.92727 -8.00266 32968 ft 486 kts 39°
2026-05-04 15:01 42.95273 -7.97210 33144 ft 488 kts 39°
2026-05-04 15:01 42.97813 -7.94155 33452 ft 487 kts 39°
2026-05-04 15:02 43.00344 -7.91105 33850 ft 484 kts 39°
2026-05-04 15:02 43.02860 -7.88070 34186 ft 481 kts 39°
2026-05-04 15:02 43.05369 -7.85040 34404 ft 481 kts 39°
2026-05-04 15:02 43.07877 -7.82008 34574 ft 482 kts 39°
2026-05-04 15:03 43.10388 -7.78971 34756 ft 482 kts 39°
2026-05-04 15:03 43.12900 -7.75928 34985 ft 481 kts 39°
2026-05-04 15:03 43.17927 -7.69830 35048 ft 484 kts 39°
2026-05-04 15:04 43.22944 -7.63728 35041 ft 480 kts 39°
2026-05-04 15:04 43.27922 -7.57659 35020 ft 477 kts 39°
2026-05-04 15:05 43.32866 -7.51619 35034 ft 475 kts 39°
2026-05-04 15:05 43.37789 -7.45591 35036 ft 474 kts 40°
2026-05-04 15:06 43.42705 -7.39559 35030 ft 474 kts 40°
2026-05-04 15:07 43.50108 -7.30449 35029 ft 477 kts 40°
2026-05-04 15:07 43.55096 -7.24292 35017 ft 479 kts 40°
2026-05-04 15:08 43.60074 -7.18134 35012 ft 482 kts 40°
2026-05-04 15:08 43.65066 -7.11944 35016 ft 483 kts 40°
2026-05-04 15:09 43.70069 -7.05725 35017 ft 484 kts 40°
2026-05-04 15:09 43.75077 -6.99486 35345 ft 484 kts 40°
2026-05-04 15:10 43.80048 -6.93276 35896 ft 479 kts 40°
2026-05-04 15:10 43.82519 -6.90184 36003 ft 480 kts 40°
2026-05-04 15:11 43.89958 -6.80858 36001 ft 479 kts 41°
2026-05-04 15:11 43.94890 -6.74655 36001 ft 476 kts 41°
2026-05-04 15:12 43.99813 -6.68450 36003 ft 474 kts 41°
2026-05-04 15:12 44.04682 -6.62297 35999 ft 472 kts 41°
2026-05-04 15:13 44.09535 -6.56153 36000 ft 472 kts 41°
2026-05-04 15:13 44.14383 -6.49999 35999 ft 472 kts 41°
2026-05-04 15:14 44.19238 -6.43823 36001 ft 473 kts 41°
2026-05-04 15:14 44.24106 -6.37613 35998 ft 475 kts 41°
2026-05-04 15:15 44.28981 -6.31382 36001 ft 477 kts 42°
2026-05-04 15:15 44.33877 -6.25110 36001 ft 478 kts 42°
2026-05-04 15:16 44.41238 -6.15649 35997 ft 480 kts 42°
2026-05-04 15:17 44.48602 -6.06151 35990 ft 480 kts 42°
2026-05-04 15:17 44.55966 -5.96619 35995 ft 480 kts 42°
2026-05-04 15:18 44.60863 -5.90258 35987 ft 479 kts 43°
2026-05-04 15:19 44.68155 -5.80712 35993 ft 477 kts 44°
2026-05-04 15:19 44.75274 -5.70940 35994 ft 476 kts 44°
2026-05-04 15:20 44.79997 -5.64414 35982 ft 475 kts 44°
2026-05-04 15:20 44.84721 -5.57901 35987 ft 475 kts 44°
2026-05-04 15:21 44.88645 -5.52489 35991 ft 474 kts 45°
2026-05-04 15:22 44.95739 -5.42679 35986 ft 474 kts 45°
2026-05-04 15:22 45.02794 -5.32887 35989 ft 474 kts 45°
2026-05-04 15:23 45.07493 -5.26344 35989 ft 474 kts 45°
2026-05-04 15:23 45.12199 -5.19775 35990 ft 475 kts 45°
2026-05-04 15:24 45.21666 -5.06513 35991 ft 476 kts 45°
2026-05-04 15:25 45.26368 -4.99901 35988 ft 476 kts 45°
2026-05-04 15:26 45.33418 -4.89957 35990 ft 476 kts 45°
2026-05-04 15:26 45.40488 -4.79948 35988 ft 476 kts 45°
2026-05-04 15:27 45.47515 -4.69962 35985 ft 476 kts 46°
2026-05-04 15:28 45.54525 -4.59964 35986 ft 475 kts 46°
2026-05-04 15:29 45.61518 -4.49952 35975 ft 474 kts 46°
2026-05-04 15:30 45.77795 -4.26502 35979 ft 473 kts 46°
2026-05-04 15:31 45.84728 -4.16451 35987 ft 473 kts 46°
2026-05-04 15:32 45.96264 -3.99642 35984 ft 472 kts 47°
2026-05-04 15:34 46.07744 -3.82809 35978 ft 473 kts 47°
2026-05-04 15:34 46.14648 -3.72635 35978 ft 473 kts 47°
2026-05-04 15:35 46.21539 -3.62441 35978 ft 473 kts 47°
2026-05-04 15:36 46.28430 -3.52207 35972 ft 474 kts 47°
2026-05-04 15:36 46.33014 -3.45378 35976 ft 474 kts 47°
2026-05-04 15:37 46.37601 -3.38526 35973 ft 474 kts 47°
2026-05-04 15:37 46.42218 -3.31613 35971 ft 474 kts 47°
2026-05-04 15:38 46.46793 -3.24743 35970 ft 473 kts 47°
2026-05-04 15:38 46.51361 -3.17866 35967 ft 473 kts 47°
2026-05-04 15:39 46.55901 -3.10986 35964 ft 471 kts 50°
2026-05-04 15:39 46.59601 -3.03204 35973 ft 467 kts 62°
2026-05-04 15:40 46.61212 -2.99104 35964 ft 467 kts 62°
2026-05-04 15:40 46.64412 -2.90883 35960 ft 466 kts 62°
2026-05-04 15:41 46.67643 -2.82702 35964 ft 466 kts 62°
2026-05-04 15:41 46.70895 -2.74533 35962 ft 466 kts 62°
2026-05-04 15:42 46.74146 -2.66357 35965 ft 466 kts 62°
2026-05-04 15:42 46.77395 -2.58156 35960 ft 467 kts 62°
2026-05-04 15:43 46.80639 -2.49938 35965 ft 468 kts 62°
2026-05-04 15:43 46.83881 -2.41703 35963 ft 468 kts 62°
2026-05-04 15:44 46.87523 -2.33805 35952 ft 472 kts 49°
2026-05-04 15:44 46.92133 -2.26964 35975 ft 474 kts 46°
2026-05-04 15:45 46.96832 -2.20162 35952 ft 469 kts 46°
2026-05-04 15:45 47.01368 -2.13503 35962 ft 458 kts 47°
2026-05-04 15:46 47.05811 -2.06892 35955 ft 451 kts 47°
2026-05-04 15:46 47.10189 -2.00338 35957 ft 448 kts 47°
2026-05-04 15:47 47.14569 -1.93764 35963 ft 446 kts 47°
2026-05-04 15:47 47.18905 -1.87244 35944 ft 446 kts 47°
2026-05-04 15:48 47.23228 -1.80728 35947 ft 445 kts 48°
2026-05-04 15:48 47.29698 -1.70947 35944 ft 448 kts 48°
2026-05-04 15:49 47.34053 -1.64343 35951 ft 451 kts 48°
2026-05-04 15:49 47.38435 -1.57680 35947 ft 457 kts 48°
2026-05-04 15:50 47.42895 -1.50881 35955 ft 464 kts 48°
2026-05-04 15:50 47.46597 -1.45230 35925 ft 446 kts 48°
2026-05-04 15:51 47.48726 -1.41979 35935 ft 435 kts 48°
2026-05-04 15:51 47.50818 -1.38774 35951 ft 433 kts 48°
2026-05-04 15:51 47.54991 -1.32365 35952 ft 432 kts 48°
2026-05-04 15:52 47.59154 -1.25955 35955 ft 431 kts 49°
2026-05-04 15:52 47.63307 -1.19547 35950 ft 431 kts 49°
2026-05-04 15:53 47.67457 -1.13130 35953 ft 431 kts 49°
2026-05-04 15:53 47.71605 -1.06699 35957 ft 431 kts 49°
2026-05-04 15:54 47.75798 -1.00183 35955 ft 433 kts 49°
2026-05-04 15:54 47.79959 -0.93700 35956 ft 435 kts 49°
2026-05-04 15:55 47.84139 -0.87171 35973 ft 440 kts 49°
2026-05-04 15:55 47.88369 -0.80548 35966 ft 440 kts 49°
2026-05-04 15:56 47.92580 -0.73940 35955 ft 439 kts 49°
2026-05-04 15:56 47.96779 -0.67332 35965 ft 442 kts 49°
2026-05-04 15:57 48.01054 -0.60582 35963 ft 452 kts 49°
2026-05-04 15:57 48.05414 -0.53686 35975 ft 460 kts 49°
2026-05-04 15:58 48.09844 -0.46660 35973 ft 469 kts 49°
2026-05-04 15:58 48.14354 -0.39488 35968 ft 477 kts 49°
2026-05-04 15:59 48.18919 -0.32209 35959 ft 480 kts 49°
2026-05-04 15:59 48.23493 -0.24895 35964 ft 481 kts 49°
2026-05-04 16:00 48.28065 -0.17564 35956 ft 481 kts 49°
2026-05-04 16:00 48.32622 -0.10234 35960 ft 480 kts 49°
2026-05-04 16:01 48.37163 -0.02894 35962 ft 478 kts 49°
2026-05-04 16:01 48.41549 0.04606 35968 ft 476 kts 51°
2026-05-04 16:02 48.45856 0.12161 35968 ft 475 kts 51°
2026-05-04 16:03 48.52307 0.23445 35959 ft 473 kts 51°
2026-05-04 16:03 48.56615 0.30969 35972 ft 476 kts 51°
2026-05-04 16:04 48.60960 0.38571 35979 ft 479 kts 51°
2026-05-04 16:04 48.67515 0.50083 35964 ft 483 kts 51°
2026-05-04 16:05 48.71883 0.57784 35971 ft 482 kts 51°
2026-05-04 16:06 48.78417 0.69345 35960 ft 480 kts 51°
2026-05-04 16:07 48.87007 0.84621 35944 ft 464 kts 51°
2026-05-04 16:08 48.95309 0.99473 35979 ft 463 kts 51°
2026-05-04 16:08 49.01647 1.10872 36137 ft 476 kts 51°
2026-05-04 16:09 49.05940 1.18616 36369 ft 480 kts 51°
2026-05-04 16:09 49.10233 1.26383 36842 ft 477 kts 51°
2026-05-04 16:10 49.14510 1.34145 37210 ft 478 kts 51°
2026-05-04 16:11 49.20910 1.45804 37806 ft 476 kts 51°
2026-05-04 16:11 49.23033 1.49682 37943 ft 476 kts 51°
2026-05-04 16:12 49.37090 1.71362 37973 ft 477 kts 44°
2026-05-04 16:13 49.46678 1.85387 37963 ft 475 kts 44°
2026-05-04 16:14 49.56198 1.99433 37973 ft 474 kts 44°
2026-05-04 16:16 49.68057 2.17028 37948 ft 473 kts 44°
2026-05-04 16:17 49.79874 2.34691 37943 ft 474 kts 45°
2026-05-04 16:18 49.89388 2.49006 37941 ft 476 kts 45°
2026-05-04 16:19 50.01277 2.67034 37942 ft 478 kts 45°
2026-05-04 16:20 50.13135 2.85209 37943 ft 479 kts 45°
2026-05-04 16:22 50.24938 3.03426 37947 ft 478 kts 45°
2026-05-04 16:23 50.39090 3.25358 37941 ft 477 kts 41°
2026-05-04 16:24 50.50576 3.35475 37940 ft 476 kts 25°
2026-05-04 16:25 50.56566 3.39896 37946 ft 476 kts 23°
2026-05-04 16:26 50.76780 3.53896 37955 ft 477 kts 23°
2026-05-04 16:28 50.91950 3.64632 37954 ft 478 kts 23°
2026-05-04 16:29 51.13184 3.79779 37960 ft 478 kts 24°
2026-05-04 16:31 51.28367 3.90704 37959 ft 479 kts 24°
2026-05-04 16:32 51.46570 4.03945 37969 ft 480 kts 27°
2026-05-04 16:33 51.51987 4.09930 37975 ft 479 kts 40°
2026-05-04 16:33 51.57045 4.16973 37965 ft 480 kts 41°
2026-05-04 16:34 51.64480 4.27398 37965 ft 480 kts 41°
2026-05-04 16:35 51.79542 4.48268 37985 ft 481 kts 41°
2026-05-04 16:36 51.87155 4.58875 37990 ft 482 kts 41°
2026-05-04 16:37 51.94753 4.69514 37984 ft 482 kts 41°
2026-05-04 16:38 52.04278 4.82922 37972 ft 482 kts 41°
2026-05-04 16:39 52.16729 5.00566 37982 ft 484 kts 41°
2026-05-04 16:40 52.25410 5.12950 37980 ft 485 kts 41°
2026-05-04 16:41 52.38083 5.31148 37968 ft 486 kts 41°
2026-05-04 16:43 52.50785 5.49533 37533 ft 490 kts 41°
2026-05-04 16:43 52.55859 5.56919 37032 ft 488 kts 42°
2026-05-04 16:43 52.58359 5.60568 37007 ft 490 kts 42°
2026-05-04 16:45 52.73561 5.82876 36977 ft 487 kts 42°
2026-05-04 16:46 52.86147 6.01510 36989 ft 486 kts 42°
2026-05-04 16:47 52.96210 6.16518 36992 ft 488 kts 42°
2026-05-04 16:48 53.06283 6.31640 36999 ft 492 kts 42°
2026-05-04 16:49 53.16411 6.46946 36997 ft 495 kts 42°
2026-05-04 16:50 53.26632 6.62495 36994 ft 495 kts 42°
2026-05-04 16:51 53.34253 6.74157 36989 ft 494 kts 42°
2026-05-04 16:52 53.44345 6.89694 36991 ft 492 kts 42°
2026-05-04 16:53 53.51879 7.01360 36994 ft 490 kts 43°
2026-05-04 16:54 53.61867 7.16919 36993 ft 489 kts 43°
2026-05-04 16:55 53.76784 7.40352 37001 ft 489 kts 43°
2026-05-04 16:56 53.88179 7.58415 36998 ft 464 kts 43°
2026-05-04 16:57 53.95110 7.69471 37022 ft 462 kts 43°
2026-05-04 16:58 54.04481 7.84503 37003 ft 460 kts 43°
2026-05-04 17:00 54.18423 8.07051 37000 ft 461 kts 43°
2026-05-04 17:01 54.30168 8.26243 37005 ft 477 kts 46°
2026-05-04 17:01 54.34202 8.35279 37004 ft 478 kts 57°
2026-05-04 17:02 54.37872 8.44754 37003 ft 476 kts 58°
2026-05-04 17:03 54.43405 8.58972 36985 ft 474 kts 57°
2026-05-04 17:03 54.48941 8.73022 37010 ft 478 kts 57°
2026-05-04 17:04 54.56419 8.92076 37006 ft 482 kts 57°
2026-05-04 17:05 54.63905 9.11315 36994 ft 482 kts 57°
2026-05-04 17:06 54.69468 9.25712 37000 ft 479 kts 57°
2026-05-04 17:07 54.74399 9.38543 36985 ft 477 kts 57°
2026-05-04 17:07 54.78640 9.49633 36980 ft 475 kts 57°
2026-05-04 17:08 54.84088 9.63953 36982 ft 473 kts 57°
2026-05-04 17:09 54.87691 9.73467 37007 ft 472 kts 57°
2026-05-04 17:09 54.91288 9.83003 37013 ft 471 kts 57°
2026-05-04 17:10 55.00226 10.06861 36611 ft 464 kts 57°
2026-05-04 17:11 55.01988 10.11590 36016 ft 465 kts 57°
2026-05-04 17:11 55.03751 10.16332 35309 ft 470 kts 57°
2026-05-04 17:11 55.07330 10.25989 33967 ft 477 kts 58°
2026-05-04 17:12 55.09129 10.30859 33264 ft 478 kts 58°
2026-05-04 17:12 55.12734 10.40640 31960 ft 480 kts 58°
2026-05-04 17:13 55.18148 10.55407 29982 ft 482 kts 58°
2026-05-04 17:14 55.23293 10.70350 28954 ft 465 kts 64°
2026-05-04 17:14 55.24684 10.75346 28946 ft 449 kts 66°
2026-05-04 17:15 55.28691 10.90377 28626 ft 452 kts 66°
2026-05-04 17:15 55.31388 11.00325 27383 ft 451 kts 65°
2026-05-04 17:16 55.34091 11.10208 26366 ft 446 kts 65°
2026-05-04 17:16 55.38054 11.24729 24894 ft 431 kts 65°
2026-05-04 17:17 55.39331 11.29430 24610 ft 418 kts 65°
2026-05-04 17:17 55.42929 11.42732 23186 ft 397 kts 65°
2026-05-04 17:18 55.44107 11.47112 22506 ft 394 kts 65°
2026-05-04 17:18 55.46419 11.55723 21313 ft 386 kts 65°
2026-05-04 17:19 55.48688 11.64206 20125 ft 379 kts 65°
2026-05-04 17:19 55.50914 11.72560 19004 ft 373 kts 65°
2026-05-04 17:20 55.53275 11.80629 17940 ft 365 kts 60°
2026-05-04 17:20 55.55732 11.88171 17147 ft 349 kts 60°
2026-05-04 17:20 55.56946 11.91882 16584 ft 347 kts 60°
2026-05-04 17:21 55.59347 11.99220 15536 ft 342 kts 59°
2026-05-04 17:21 55.61088 12.04546 14817 ft 338 kts 60°
2026-05-04 17:22 55.62260 12.08137 14311 ft 336 kts 60°
2026-05-04 17:22 55.63427 12.11709 13825 ft 334 kts 60°
2026-05-04 17:23 55.66866 12.22262 12280 ft 326 kts 59°
2026-05-04 17:23 55.67991 12.25733 11779 ft 323 kts 60°
2026-05-04 17:23 55.69167 12.33165 10748 ft 315 kts 101°
2026-05-04 17:24 55.68601 12.36851 10294 ft 308 kts 113°
2026-05-04 17:24 55.66600 12.47521 8754 ft 307 kts 92°
2026-05-04 17:25 55.67019 12.51125 8589 ft 293 kts 64°
2026-05-04 17:25 55.69445 12.56590 7958 ft 279 kts 45°
2026-05-04 17:26 55.72072 12.61624 7163 ft 276 kts 45°
2026-05-04 17:26 55.75946 12.69047 6010 ft 270 kts 45°
2026-05-04 17:27 55.78433 12.73836 5502 ft 254 kts 45°
2026-05-04 17:27 55.80604 12.78319 5053 ft 233 kts 62°
2026-05-04 17:28 55.80468 12.83768 4155 ft 225 kts 127°
2026-05-04 17:29 55.76505 12.85662 3107 ft 207 kts 194°
2026-05-04 17:29 55.72747 12.82507 2733 ft 205 kts 221°
2026-05-04 17:30 55.69751 12.77931 1949 ft 169 kts 223°
2026-05-04 17:31 55.68080 12.75343 1540 ft 148 kts 223°
2026-05-04 17:31 55.65795 12.71803 938 ft 144 kts 224°
2026-05-04 17:32 55.64291 12.69470 497 ft 143 kts 224°
2026-05-04 17:33 55.62098 12.66066 26 ft 135 kts 223°
2026-05-04 17:33 55.61500 12.65126 23 ft 89 kts 220°
2026-05-04 17:34 55.61189 12.64247 25 ft 15 kts 262°
2026-05-04 17:34 55.61188 12.64221 23 ft 2 kts 273°
2026-05-04 17:35 55.61359 12.64201 25 ft 13 kts 34°
2026-05-04 17:35 55.61559 12.64431 25 ft 18 kts 31°
2026-05-04 17:35 55.61667 12.64554 23 ft 19 kts 32°
2026-05-04 17:36 55.61742 12.64638 26 ft 20 kts 32°
2026-05-04 17:36 55.61863 12.64781 23 ft 22 kts 33°
2026-05-04 17:36 55.61995 12.64931 24 ft 22 kts 32°
2026-05-04 17:36 55.62108 12.65061 25 ft 12 kts 33°
2026-05-04 17:37 55.62123 12.65078 25 ft 1 kts 33°
2026-05-04 17:37 55.62137 12.65094 24 ft 4 kts 33°
2026-05-04 17:37 55.62182 12.65147 23 ft 11 kts 33°
2026-05-04 17:37 55.62254 12.65198 23 ft 12 kts
2026-05-04 17:38 55.62335 12.65203 23 ft 11 kts
2026-05-04 17:38 55.62414 12.65201 25 ft 11 kts
2026-05-04 17:38 55.62441 12.65313 23 ft 11 kts 89°
2026-05-04 17:38 55.62442 12.65445 23 ft 11 kts 89°
2026-05-04 17:39 55.62445 12.65710 23 ft 7 kts 90°
2026-05-04 17:39 55.62449 12.65743 23 ft 0 kts 65°
2026-05-04 17:39 55.62457 12.65756 23 ft 4 kts 34°
2026-05-04 17:40 55.62497 12.65761 23 ft 6 kts 357°
2026-05-04 17:40 55.62521 12.65759 23 ft 0 kts 358°